sat.trackr.live / text

‹ back to catalog

STARLINK-3672

NORAD 51974 · 2022-025U

PAYLOAD ACTIVE UNKNOWN

§ Identity

Operator
Country
US
Launch date
2022-03-09
Launch site
AFETR
Launch vehicle
Mass (kg)
RCS (m²)

Purposes: comms

External: N2YO · Heavens-Above · Gunter

§ Orbital elements

Epoch: 2026-05-24T23:09:39.613248Z

Period
94.11 min
Inclination
53.1604°
Eccentricity
0.0001282
Mean motion
15.30189816 rev/d
Perigee alt
474.4 km
Apogee alt
476.1 km
Semi-major
6,853.4 km
B*
7.6430e-6
RAAN
42.4228°
Arg perigee
93.8754°
Mean anomaly
266.2393°
Rev number
23,250

§ Raw data

STARLINK-36721 51974U 22025U   26144.96504182 -.00000133  00000+0  76430-5 0  99912 51974  53.1604  42.4228 0001282  93.8754 266.2393 15.30189816232503

JSON: /api/v1/satellites/51974 · /tle

For live sub-satellite position, see the globe view (requires WebGL).

§ Visibility from observer

Set your observer location to see the next 7 days of passes ≥ 10°. The values pass through the URL so the page stays shareable.

No JS? Fill the form by hand. The geolocation button needs JavaScript.